Regional Weather Roundup
Issued by NWS

Home | Current Version | Previous Version | Text Only | Print | Product List | Glossary Off
Versions: 1 2 3 4 5 6 7 8 9 10 11 12 13 14 15 16 17 18 19 20 21 22 23 24 25 26 27 28 29 30 31 32 33 34 35 36 37 38 39 40 41 42 43 44 45 46 47 48 49 50

000
ASUS43 KIND 301159
RWRIN

WEATHER ROUNDUP FOR INDIANA
NATIONAL WEATHER SERVICE INDIANAPOLIS IN
700 AM EST FRI JAN 30 2015

NOTE: "FAIR" INDICATES FEW OR NO CLOUDS BELOW 12,000 FEET WITH NO
SIGNIFICANT WEATHER AND/OR OBSTRUCTIONS TO VISIBILITY.

* - STATION DOES NOT REPORT WEATHER SUCH AS PRECIPITATION OR FOG.

+ - STATION NOT QUALITY CONTROLLED BY THE NATIONAL WEATHER SERVICE.
    USE DATA WITH CAUTION...ESPECIALLY DEWPOINT AND RELATIVE
    HUMIDITY OBSERVATIONS.

INZ001>003-010>013-019-020-301300-
NORTHWEST INDIANA

CITY           SKY/WX    TMP DP  RH WIND       PRES   REMARKS
GARY /AIRPORT/ MOCLDY    27   7  43 NW14G25   30.45R WCI  15
VALPARAISO     NOT AVBL

$$

LMZ046-743>745-301300-
SOUTHERN LAKE MICHIGAN

STATION/POSITION TIME  TEMP WIND        PRES
                       AIR  DIR/SP/G
                 (UTC) (F)  (DEG/KT/KT) (MB)
MICHIGAN CITY    1100   27  340/ 26/ 31   N/A

$$

INZ004-005-014>016-021>024-301300-
NORTH CENTRAL INDIANA

CITY           SKY/WX    TMP DP  RH WIND       PRES   REMARKS
ELKHART        CLOUDY    23  12  63 NW5       30.39  WCI  17
GOSHEN         CLOUDY    22  14  71 N13       30.38R WCI  10
6HR MIN TEMP:  22; 6HR MAX TEMP:  29; 6HR PCP: TRACE;

SOUTH BEND     FLURRIES  24  16  71 N15       30.40R WCI  11
6HR MIN TEMP:  24; 6HR MAX TEMP:  29; 6HR PCP: TRACE;


$$

INZ006>009-017-018-025>027-301300-
NORTHEAST INDIANA

CITY           SKY/WX    TMP DP  RH WIND       PRES   REMARKS
ANGOLA *+      CLOUDY    19  10  68 N10       30.33R WCI   8
FORT WAYNE     PTCLDY    21  11  65 N13       30.37R WCI   9
6HR MIN TEMP:  21; 6HR MAX TEMP:  32; 6HR PCP: TRACE;


$$

INZ028-029-035-036-043>045-051>053-301300-
WEST CENTRAL INDIANA

CITY           SKY/WX    TMP DP  RH WIND       PRES   REMARKS
GREENCASTLE +  MOCLDY    28  18  64 N15G21    30.40R WCI  17
LAFAYETTE      PTCLDY    25  14  63 N13       30.43R WCI  14
6HR MIN TEMP:  25; 6HR MAX TEMP:  33; 6HR PCP: TRACE;

TERRE HAUTE    CLOUDY    31  23  72 N12       30.42R WCI  22
6HR MIN TEMP:  31; 6HR MAX TEMP:  34;


$$

INZ030>032-037>040-046>048-054>057-064-065-301300-
CENTRAL INDIANA

CITY           SKY/WX    TMP DP  RH WIND       PRES   REMARKS
INDIANAPOLIS   FLURRIES  25  20  81 N14       30.39R WCI  13
6HR MIN TEMP:  25; 6HR MAX TEMP:  31; 6HR PCP:  0.01;

-EAGLE CREEK   CLOUDY    27  18  69 N15       30.38R WCI  15
6HR MIN TEMP:  27; 6HR MAX TEMP:  33; 6HR PCP: TRACE;

KOKOMO *+      MOCLDY    25  16  68 N10       30.38R WCI  15
6HR MIN TEMP:  25; 6HR MAX TEMP:  34;

MT COMFORT *+  MOCLDY    27  10  50 N20       30.38R WCI  13
SHELBYVILLE    CLOUDY    30  21  69 N13       30.37R WCI  20
6HR MIN TEMP:  30; 6HR MAX TEMP:  35; 6HR PCP: TRACE;


$$

INZ033-034-041-042-049-050-058-059-301300-
EAST CENTRAL INDIANA

CITY           SKY/WX    TMP DP  RH WIND       PRES   REMARKS
MUNCIE         CLOUDY    25  17  72 MISG      30.36R
6HR MIN TEMP:  25; 6HR MAX TEMP:  33; 6HR PCP: TRACE;


$$

INZ060-061-067>069-081>083-085>088-301300-
SOUTHWEST INDIANA

CITY           SKY/WX    TMP DP  RH WIND       PRES   REMARKS
EVANSVILLE     MOCLDY    34  21  59 NW6       30.45R WCI  29
6HR MIN TEMP:  34; 6HR MAX TEMP:  37;

HUNTINGBURG *+ CLOUDY    34  23  64 NW10      30.42R WCI  26
6HR MIN TEMP:  34; 6HR MAX TEMP:  36;


$$

INZ062-063-066-070>080-084-089>092-301300-
SOUTH CENTRAL AND SOUTHEAST INDIANA

CITY           SKY/WX    TMP DP  RH WIND       PRES   REMARKS
BLOOMINGTON    CLOUDY    32  23  69 N8        30.37R WCI  25
6HR MIN TEMP:  32; 6HR MAX TEMP:  35; 6HR PCP: TRACE;

SEYMOUR +      CLOUDY    34  23  64 N17       30.37R WCI  23

$$




USA.gov is the U.S. government's official web portal to all federal, state and local government web resources and services.